Regional Weather Roundup
Issued by NWS

Home | Current Version | Previous Version | Text Only | Print | Product List | Glossary Off
Versions: 1 2 3 4 5 6 7 8 9 10 11 12 13 14 15 16 17 18 19 20 21 22 23 24 25 26 27 28 29 30 31 32 33 34 35 36 37 38 39 40 41 42 43 44 45 46 47 48 49 50

000
ASUS43 KMPX 220810
RWRMN
WEATHER ROUNDUP FOR MINNESOTA
NATIONAL WEATHER SERVICE TWIN CITIES/CHANHASSEN MN
300 AM CDT THU JUN 22 2017


NOTE: "FAIR" INDICATES FEW OR NO CLOUDS BELOW 12,000 FEET WITH NO
SIGNIFICANT WEATHER AND/OR OBSTRUCTIONS TO VISIBILITY. N/A MEANS
CURRENT SKY AND/OR WEATHER CONDITIONS ARE NOT AVAILABLE.

MNZ060>063-068>070-220900-
   Twin Cities Metro

CITY           SKY/WX    TMP DP  RH WIND       PRES   REMARKS
TWIN CITIES    CLOUDY    70  62  76 E7        29.65F
ST PAUL        CLOUDY    68  64  87 SE7       29.65F
CRYSTAL        CLOUDY    69  60  73 SE10      29.61F
BLAINE         CLOUDY    72  63  73 E5        29.63F
LAKEVILLE      CLOUDY    64  64 100 SE3       29.66F
EDEN PRAIRIE   CLOUDY    71  62  73 E6        29.63F
SOUTH ST PAUL  CLOUDY    69  62  76 SE3       29.65F
LAKE ELMO      FAIR      66  63  88 SE5       29.67F
$$
MNZ001>005-007-008-013>017-022>024-027-028-220900-
   Northwest Minnesota

CITY           SKY/WX    TMP DP  RH WIND       PRES   REMARKS
BEMIDJI        CLEAR     53  52  97 W5        29.67F
HALLOCK        CLEAR     50  46  87 W8        29.66S
ROSEAU         CLEAR     57  52  82 CALM      29.65S
WARROAD        CLEAR     57  54  88 W8        29.64S
THIEF RVR FALL CLEAR     55  49  80 W7        29.69R
CROOKSTON      PTCLDY    54  48  82 NW3       29.68F
FOSSTON        CLEAR     48  46  93 CALM      29.70S
DETROIT LAKES  CLEAR     59  54  82 CALM      29.72R
MOORHEAD       PTCLDY    61  46  59 CALM      29.71S
PARK RAPIDS    CLEAR     57  50  77 NW5       29.69S
MAHNOMEN       FAIR      56  52  89 SW5       29.70S
$$
MNZ006-009>011-018-025>026-220900-
   North Central Minnesota

CITY           SKY/WX    TMP DP  RH WIND       PRES   REMARKS
BAUDETTE       CLEAR     57  54  89 W6        29.62R
FLAG ISLAND    CLEAR     57  54  88 W13       29.60R
INTL FALLS     CLEAR     58  55  90 W7        29.61R
WASKISH        CLEAR     63  57  82 W9G16     29.65S
BIG FORK       FOG       55  54  94 CALM      29.65F VSB 1/4
LONGVILLE      CLEAR     63  54  72 W3        29.68S
GRAND RAPIDS   FOG       55  54  94 CALM      29.68S VSB 1/4
CRANE LAKE     CLEAR     55  54  94 S5        29.63S
ORR            CLEAR     55  52  88 S3        29.61F
COOK           CLEAR     55  54  94 SW6       29.65S
WALKER         FAIR      57  53  86 CALM      29.68S
$$
MNZ012-019>021-037-220900-
   Northeast Minnesota

CITY           SKY/WX    TMP DP  RH WIND       PRES   REMARKS
DULUTH         MOCLDY    52  50  93 S7        29.67F
ELY            CLOUDY    57  55  94 SW5       29.64S
HIBBING        CLEAR     50  50 100 NW5       29.66F FOG
EVELETH        PTCLDY    54  51  90 SW5       29.67S
DULUTH HARBOR  MOCLDY    52  50  93 NE7       29.69F
TWO HARBORS    MOCLDY    55  50  82 CALM      29.65F
SILVER BAY     MOCLDY    54  54 100 CALM      29.65F FOG
GRAND MARAIS     N/A     51  49  92 CALM      29.64F
G MARAIS ARPRT PTCLDY    50  46  87 CALM      29.66F FOG
$$
MNZ029>031-032-039>041-046>048-054>057-064-220900-
   West Central Minnesota

CITY           SKY/WX    TMP DP  RH WIND       PRES   REMARKS
FERGUS FALLS   CLOUDY    63  52  67 NE5       29.68R
WHEATON        CLOUDY    64  55  72 CALM      29.71S
MORRIS         CLOUDY    70  63  78 CALM      29.69S
ALEXANDRIA     CLOUDY    68  63  84 N3        29.70F
ELBOW LAKE     FAIR      65  56  71 E3        29.69S
WADENA         CLEAR     61  55  82 CALM      29.70S
GLENWOOD       CLOUDY    66  64  94 CALM      29.70F
APPLETON       LGT RAIN  72  63  73 NE10      29.68S
BENSON         CLOUDY    70  66  88 NE5       29.72R
ORTONVILLE     RAIN      66  57  72 N6        29.70F
MADISON        CLOUDY    73  57  56 N16G24    29.67R
$$
MNZ033>034-036-042>043-049>051-058-059-220900-
   Central Minnesota

CITY           SKY/WX    TMP DP  RH WIND       PRES   REMARKS
ST CLOUD       MOCLDY    65  65 100 CALM      29.66F
SAUK CENTRE    FAIR      66  65  96 CALM      29.70F
PAYNESVILLE    CLOUDY    68  68 100 CALM      29.69S
AITKIN         PTCLDY    64  63  94 SW5       29.66S
PINE RIVER     CLEAR     61  61 100 CALM      29.72F
BRAINERD       PTCLDY    66  64  93 W6        29.68F
STAPLES        PTCLDY    63  61  94 CALM      29.70S
LONG PRAIRIE   FAIR      64  63  94 CALM      29.69F
LITTLE FALLS   CLOUDY    64  63  94 CALM      29.69S
LITCHFIELD     CLEAR     68  64  88 CALM      29.67F
BUFFALO        CLEAR     68  62  80 CALM      29.66F
MAPLE LAKE     CLEAR     68  64  85 CALM      29.67S
HUTCHINSON     CLEAR     67  64  90 CALM      29.65F
$$
MNZ037-044-045-052-053-220900-
   East Central Minnesota

CITY           SKY/WX    TMP DP  RH WIND       PRES   REMARKS
PRINCETON      PTCLDY    68  64  88 CALM      29.67S
MORA           PTCLDY    61  59  94 CALM      29.68S
CAMBRIDGE      PTCLDY    68  61  77 NW5       29.65F
RUSH CITY      PTCLDY    64  61  88 CALM      29.66F
MOOSE LAKE     CLOUDY    59  55  88 NE3       29.65F
HINCKLEY       FAIR      61  61 100 CALM      29.66F
CLOQUET        MOCLDY    54  50  87 SE5       29.68S
MCGREGOR       CLEAR     63  61  94 SW6       29.67F
$$
MNZ071>073-080-081-089-090-097-098-220900-
   Southwest Minnesota

CITY           SKY/WX    TMP DP  RH WIND       PRES   REMARKS
MONTEVIDEO     CLOUDY    72  66  83 N3        29.68R
GRANITE FALLS  PTCLDY    72  67  87 N5        29.66F
CANBY          MOCLDY    72  61  68 N14       29.70R
MARSHALL       PTCLDY    69  67  93 N6        29.66R
REDWOOD FALLS  CLEAR     69  64  84 SE3       29.63F
OLIVIA         CLEAR     68  63  83 CALM      29.64S
PIPESTONE      CLEAR     70  66  88 CALM      29.67R
WINDOM         CLEAR     66  64  94 CALM      29.65F
WORTHINGTON    CLEAR     69  69 100 SE7       29.66F FOG
JACKSON        CLEAR     72  64  78 CALM      29.67F
TRACY          CLEAR     69  67  94 SE6       29.62F
SLAYTON        HVY RAIN  66  63  88 SE6       29.65F
$$
MNZ065>067-074>077-082>085-091>093-220900-
   South Central Minnesota

CITY           SKY/WX    TMP DP  RH WIND       PRES   REMARKS
MANKATO        CLOUDY    68  66  93 SE9       29.65F
NEW ULM        CLEAR     66  63  88 SE6       29.63F
ST JAMES       CLOUDY    66  66 100 E3        29.65F
FAIRMONT       CLOUDY    72  65  78 S8        29.66S
GLENCOE        CLEAR     69  65  89 E6        29.63F
FARIBAULT      CLOUDY    64  63  94 CALM      29.67F
OWATONNA       CLOUDY    68  64  88 SE3       29.67F
WASECA         CLOUDY    64  63  94 E6        29.67F
ALBERT LEA     CLOUDY    72  66  83 SW9G16    29.67F
$$
MNZ078>079-086>088-094>096-220900-
   Southeast Minnesota

CITY           SKY/WX    TMP DP  RH WIND       PRES   REMARKS
ROCHESTER      CLOUDY    68  66  93 S7        29.71R
RED WING       CLOUDY    66  63  88 CALM      29.66S
STANTON        CLOUDY    68  65  89 CALM      29.65F
DODGE CENTER   CLOUDY    66  64  94 CALM      29.70F
WINONA         CLOUDY    70  64  83 CALM      29.72S
AUSTIN         CLOUDY    72  64  78 SW17      29.69F
PRESTON        CLOUDY    73  65  77 SW17      29.71S
$$
ABBREVIATIONS USED IN REMARKS
   TC - TEMPERATURES IN CELSIUS
  WCI - WIND CHILL INDEX
   HX - HEAT INDEX
  VSB - VISIBILITY
$$




USA.gov is the U.S. government's official web portal to all federal, state and local government web resources and services.